一网星座-0648星 (ONEWEB-0648)

导读

ONEWEB-0648是英国一网(OneWeb)公司低轨卫星互联网星座的组成卫星,于2023年3月9日发射入轨。该卫星运行在高度约1200公里的近地轨道,工作于Ku/Ka通信频段,旨在为全球尤其是偏远地区提供低延迟高速宽带服务。它是OneWeb第一阶段648颗卫星组网计划的一环,助力实现全球无缝互联网覆盖,推动空天地一体化通信网络建设。

Basic Information
目录编号:
55811
目录名称:
ONEWEB-0648
国际标识:
2023-029R
轨道中心:
EARTH
卫星名称:
一网星座-0648星
卫星全名:
一网星座-0648星 (ONEWEB-0648)
卫星状态:
在轨 (已飞行1283 天)
发射日期:
2023-03-09 UTC
国别 :
英国 (GB)
星等 :
--
This satellite is enrolled in the Space Conjunction Data Service (SCDS) and the current flight risk assessment level is: No High Risk
Orbit Information
数据来源 国际轨道数据 AOE轨道数据
星历时间 2026-09-11T21:57:39+0800
14小时前
查看轨道信息
2026-09-09T23:00:00+0800
2天前
查看轨道信息
半长轴 7583.93km 7583.943km
偏心率 0.0002428 0.0002447
轨道倾角 87.890° 87.889°
近地点辐角 70.850° 74.742°
升交点赤经 272.476° 272.868°
平近点角 289.289° 31.155°
近地点 1203.951km 1203.95km
远地点 1207.635km 1207.662km
周期 109.547分钟 109.547分钟
每日圈数 13.145022 13.144988
Detailed Information
平衡模式:
三轴稳定
覆盖范围:
全球
运营商:
一网卫星公司
运营商所在国:
英国
制造商(研发单位):
一网卫星公司
制造商所在国:
英国
使用方式:
暂无
Satellite Introduction
OneWeb卫星网络由648颗重约125公斤的微型卫星组成,运行在1200公里的轨道上。 每颗卫星都能够提供至少每秒8千兆位的吞吐量,以使用其高吞吐量的Ku频段有效载荷为家庭和移动平台提供互联网接入。该卫星仍在工作。
2D Orbit Map
3D Orbit Map
Orbit Altitude Analysis Chart
Orbit Inclination Analysis Chart
Orbit Comprehensive Analysis Chart
View Comprehensive Chart
Miss Distance Evolution Trend with All Objects
Collision Probability Evolution Trend with All Objects